Location: LDNL
(36.4545°S, 141.6685°E)
Time: 19:32:49
(UTC+10:00)

A-11 Canister half - Pass Details

Date: 29 January 2022
Orbit: 1527 x 1682 km, 47.3° (Epoch: 20 May)

Event Time Altitude Azimuth Distance (km) Brightness Sun altitude
Rises 03:07:08 0° 254° (WSW) 4,932 11.6 -32.2°
Reaches altitude 10° 03:10:35 10° 247° (WSW) 3,931 11.1 -31.9°
Maximum altitude 03:20:08 45° 176° (S) 2,124 10.0 -31.1°
Drops below altitude 10° 03:29:24 10° 105° (ESE) 3,817 11.5 -30.3°
Sets 03:32:41 0° 98° (E) 4,778 12.1 -30.0°
